Flag for Norway Weather past 2 weeks in Lierbyen, Norway

Now
54 °F

Passing clouds.


Feels Like: 47 °F
Forecast: 51 / 69 °F
Wind: 28 mph from Northeast

Location: Oslo / Fornebu

Current Time: Jul 29, 2015 at 5:10:20 AM

Latest Report: Jul 29, 2015 at 4:20 AM


Visibility: N/A

Pressure: 29.62 "Hg

Humidity: 94%

Dew point: 52 °F

Location of LierbyenLocation

Historic Weather in Lierbyen — Graph

°F

Lierbyen temperature yesterday

Maximum temperature yesterday: 54 °F (at 8:20 AM)
Minimum temperature yesterday: 52 °F (at 12:20 AM)
Average temperature yesterday: 53 °F

Past Weeks' High & Low Weather Summary

 TemperatureHumidityPressure
High61 °F (Jul 16, 6:50 PM)100% (Jul 14, 3:20 AM)30.18 "Hg (Jul 14, 3:20 AM)
Low48 °F (Jul 19, 7:20 PM)59% (Jul 15, 1:20 PM)29.36 "Hg (Jul 18, 2:20 PM)
Average54 °F83%29.75 "Hg
* Reported Jul 14 3:20 AM — Jul 29 3:50 AM, Lierbyen, Weather by CustomWeather, © 2015

Note: Actual official high and low records may vary slightly from our data, if they occured in-between our weather recording intervals... More about our weather records

Advertising

Lierbyen weather history for previous 24 hours

 ConditionsComfort  
Time TempWeatherWind HumidityBarometerVisibility
3:50 AM
Wed, Jul 29
54 °FSprinkles. Passing clouds.26 mph94%29.62 "HgN/A
3:20 AM54 °FPassing clouds.25 mph94%29.62 "HgN/A
2:50 AM54 °FPartly cloudy.26 mph94%29.62 "HgN/A
2:20 AM54 °FPassing clouds.24 mph94%29.62 "HgN/A
1:50 AM54 °FPassing clouds.25 mph94%29.62 "HgN/A
1:20 AM54 °FPassing clouds.26 mph94%29.62 "HgN/A
12:50 AM52 °FSprinkles. Passing clouds.29 mph100%29.62 "HgN/A
12:20 AM52 °FPassing clouds.29 mph94%29.62 "HgN/A
11:50 PM
Tue, Jul 28
54 °FPassing clouds.29 mph88%29.62 "HgN/A
11:20 PM54 °FPassing clouds.28 mph88%29.62 "HgN/A
10:50 PM54 °FPartly sunny.28 mph88%29.62 "HgN/A
10:20 PM54 °FPartly sunny.26 mph88%29.62 "HgN/A
9:50 PM54 °FPartly sunny.26 mph82%29.62 "HgN/A
9:20 PM54 °FPassing clouds.28 mph82%29.62 "HgN/A
8:50 PM52 °FPartly sunny.26 mph88%29.62 "HgN/A
8:20 PM52 °FPartly sunny.26 mph94%29.62 "HgN/A
7:50 PM52 °FPartly sunny.25 mph88%29.62 "HgN/A
7:20 PM54 °FPartly sunny.24 mph82%29.62 "HgN/A
6:50 PM52 °FPartly sunny.22 mph88%29.62 "HgN/A
6:20 PM52 °FSprinkles. Partly sunny.22 mph88%29.62 "HgN/A
5:50 PM52 °FPartly sunny.21 mph94%29.62 "HgN/A
5:20 PM52 °FPartly sunny.22 mph88%29.62 "HgN/A
4:50 PM52 °FPartly sunny.23 mph88%29.62 "HgN/A
4:20 PM52 °FOvercast.24 mph88%29.62 "HgN/A
3:50 PM54 °FPartly sunny.23 mph82%29.62 "HgN/A
3:20 PM54 °FPartly sunny.24 mph82%29.62 "HgN/A
2:50 PM54 °FBroken clouds.25 mph88%29.62 "HgN/A
2:20 PM54 °FBroken clouds.23 mph88%29.62 "HgN/A
1:50 PM54 °FScattered clouds.23 mph82%29.62 "HgN/A
1:20 PM54 °FBroken clouds.23 mph88%29.62 "HgN/A
12:50 PM54 °FScattered clouds.22 mph82%29.62 "HgN/A
12:20 PM54 °FScattered clouds.22 mph82%29.62 "HgN/A
11:50 AM54 °FScattered clouds.23 mph82%29.62 "HgN/A
11:20 AM54 °FScattered clouds.23 mph88%29.59 "HgN/A
10:50 AM54 °FBroken clouds.21 mph88%29.59 "HgN/A
10:20 AM54 °FPartly sunny.21 mph88%29.59 "HgN/A
9:50 AM54 °FPassing clouds.18 mph88%29.59 "HgN/A
9:20 AM54 °FPartly sunny.18 mph82%29.59 "HgN/A
8:50 AM54 °FPassing clouds.18 mph82%29.59 "HgN/A
8:20 AM54 °FPartly sunny.21 mph77%29.59 "HgN/A
7:50 AM52 °FScattered clouds.21 mph82%29.59 "HgN/A
7:20 AM52 °FDrizzle. Partly sunny.21 mph88%29.59 "Hg6 mi
6:50 AM52 °FPartly sunny.17 mph88%29.59 "HgN/A
6:20 AM52 °FOvercast.17 mph88%29.59 "HgN/A
5:50 AM52 °FPartly sunny.17 mph88%29.59 "HgN/A
5:20 AM52 °FPassing clouds.20 mph88%29.59 "HgN/A
Weather by CustomWeather, © 2015

See weather overviewHow to use our weather pages